Gulkana, AK

5:46 AM AKDT on September 22, 2017 (GMT -0800)
Gulkana

Weather History for PAGK - October, 2013

Change the Weather History Date:

Sunday, October 6, 2013

  Actual Average Record
Temperature  
Mean Temperature 35 °F -  
Max Temperature 43 °F 43 °F 65 °F (1969)
Min Temperature 27 °F 26 °F 5 °F (1967)
Degree Days  
Heating Degree Days 30    
Moisture  
Dew Point 33 °F    
Average Humidity 90    
Maximum Humidity 97    
Minimum Humidity 65    
Precipitation  
Precipitation 0.08 in - - ()
Sea Level Pressure  
Sea Level Pressure 29.68 in    
Wind  
Wind Speed 3 mph (NW)    
Max Wind Speed 8 mph    
Max Gust Speed -    
Visibility 10 miles    
Events Rain    
Averages and records for this station are not official NWS values.
T = Trace of Precipitation, MM = Missing Value Source: NWS Daily Summary

Daily Weather History Graph

Daily Weather History Graph

Search for Another Location

Airport or City:

Trip Planner

Search our weather history database for the weather conditions in past years. The results will help you decide how hot, cold, wet, or windy it might be!

Date:

Astronomy

Oct. 06, 2013 Rise Set
Actual Time 8:03 AM AKDT 6:54 PM AKDT
Civil Twilight 7:18 AM AKDT 7:39 PM AKDT
Nautical Twilight 6:27 AM AKDT 8:30 PM AKDT
Astronomical Twilight 5:32 AM AKDT 9:24 PM AKDT
Moon 10:43 AM AKDT (10/6) 7:10 PM AKDT (10/6)
Length of Visible Light 12h 20m
Length of Day
10h 51m
Waxing Crescent, 4% of the Moon is Illuminated
Oct 6
Waxing Crescent
Oct 11
First Quarter
Oct 18
Full
Oct 26
Last Quarter
Nov 3
New

Hourly Weather History & Observations

Time (AKDT) Temp. Windchill Dew Point Humidity Pressure Visibility Wind Dir Wind Speed Gust Speed Precip Events Conditions
12:53 AM 35.1 °F 29.3 °F 33.1 °F 92% 29.75 in 10.0 mi SSE 6.9 mph - N/A   Mostly Cloudy
1:53 AM 36.0 °F 30.3 °F 33.1 °F 89% 29.74 in 10.0 mi SSE 6.9 mph - N/A   Clear
2:53 AM 35.1 °F - 33.1 °F 92% 29.74 in 10.0 mi Calm Calm - N/A   Clear
3:53 AM 28.0 °F - 27.0 °F 96% 29.74 in 10.0 mi Calm Calm - N/A   Clear
4:53 AM 28.0 °F 22.8 °F 26.1 °F 92% 29.74 in 10.0 mi NNW 4.6 mph - N/A   Partly Cloudy
5:53 AM 28.9 °F 25.2 °F 27.0 °F 92% 29.73 in 10.0 mi North 3.5 mph - N/A   Overcast
6:53 AM 28.0 °F 22.8 °F 27.0 °F 96% 29.74 in 10.0 mi NNW 4.6 mph - N/A   Scattered Clouds
7:53 AM 28.9 °F 23.9 °F 27.0 °F 92% 29.74 in 10.0 mi NNW 4.6 mph - N/A   Clear
8:53 AM 30.0 °F 26.5 °F 28.0 °F 92% 29.75 in 10.0 mi Variable 3.5 mph - N/A   Scattered Clouds
9:53 AM 32.0 °F - 28.9 °F 88% 29.75 in 10.0 mi Calm Calm - N/A   Partly Cloudy
10:53 AM 34.0 °F 31.0 °F 30.9 °F 89% 29.74 in 10.0 mi North 3.5 mph - N/A   Clear
11:53 AM 36.0 °F - 33.1 °F 89% 29.72 in 10.0 mi Calm Calm - N/A   Mostly Cloudy
12:53 PM 39.9 °F 37.8 °F 35.1 °F 83% 29.70 in 10.0 mi NNW 3.5 mph - N/A   Clear
1:53 PM 41.0 °F 38.0 °F 35.1 °F 79% 29.69 in 10.0 mi NNW 4.6 mph - N/A   Mostly Cloudy
2:53 PM 43.0 °F 40.3 °F 33.1 °F 68% 29.67 in 10.0 mi North 4.6 mph - N/A   Mostly Cloudy
3:53 PM 43.0 °F 41.3 °F 35.1 °F 74% 29.67 in 10.0 mi North 3.5 mph - N/A   Overcast
4:53 PM 42.1 °F 37.1 °F 36.0 °F 79% 29.67 in 8.0 mi NW 8.1 mph - 0.00 in Rain Light Rain
5:30 PM 41.0 °F 39.0 °F 37.0 °F 86% 29.60 in 10.0 mi Variable 3.5 mph - 0.00 in Rain Light Rain
5:53 PM 39.0 °F 36.8 °F 37.0 °F 93% 29.67 in 4.0 mi West 3.5 mph - 0.02 in Rain Rain
6:32 PM 39.0 °F - 37.0 °F 93% 29.59 in 10.0 mi Calm Calm - 0.03 in Rain Light Rain
6:53 PM 37.9 °F - 37.0 °F 97% 29.67 in 10.0 mi Calm Calm - 0.03 in Rain Light Rain
7:34 PM 37.9 °F - 36.0 °F 93% 29.59 in 10.0 mi Calm Calm - 0.01 in Rain Light Rain
7:53 PM 37.9 °F - 36.0 °F 93% 29.67 in 10.0 mi Calm Calm - 0.01 in Rain Light Rain
8:13 PM 37.9 °F - 36.0 °F 93% 29.59 in 10.0 mi Calm Calm - 0.00 in   Overcast
8:53 PM 37.0 °F 34.5 °F 36.0 °F 96% 29.67 in 10.0 mi West 3.5 mph - 0.00 in Rain Light Rain
9:26 PM 37.0 °F - 36.0 °F 96% 29.60 in 10.0 mi Calm Calm - 0.00 in Rain Light Rain
9:43 PM 37.0 °F - 36.0 °F 96% 29.60 in 10.0 mi Calm Calm - 0.00 in   Overcast
9:53 PM 37.0 °F - 35.1 °F 93% 29.67 in 9.0 mi Calm Calm - 0.00 in Rain Light Rain
10:36 PM 36.0 °F - 35.1 °F 97% 29.60 in 10.0 mi Calm Calm - 0.00 in   Overcast
10:53 PM 36.0 °F - 35.1 °F 97% 29.67 in 10.0 mi Calm Calm - 0.00 in   Overcast
11:05 PM 36.0 °F 33.3 °F 35.1 °F 97% 29.61 in 10.0 mi West 3.5 mph - 0.00 in Rain Light Rain
11:53 PM 36.0 °F 33.3 °F 35.1 °F 97% 29.68 in 10.0 mi West 3.5 mph - 0.01 in   Overcast